Flag for Germany Weather past 2 weeks in Bielefeld, North Rhine-Westphalia, Germany

Now
47 °F

Fog.


Feels Like: 46 °F
Forecast: 48 / 60 °F
Wind: 3 mph from Southwest

Location: Bad Lippspringe

Current Time: Sep 23, 2014 at 9:13:43 AM

Latest Report: Sep 23, 2014 at 8:00 AM


Visibility: 3 mi

Pressure: 30.17 "Hg

Humidity: 94%

Dew point: 45 °F

Location of BielefeldLocation

Historic Weather in Bielefeld — Graph

°F

Bielefeld temperature yesterday

Maximum temperature yesterday: 56 °F (at 6:00 PM)
Minimum temperature yesterday: 48 °F (at 1:00 PM)
Average temperature yesterday: 52 °F

Past Weeks' High & Low Weather Summary

 TemperatureHumidityPressure
High75 °F (Sep 17, 3:00 PM)99% (Sep 12, 6:00 AM)30.23 "Hg (Sep 12, 6:00 AM)
Low44 °F (Sep 12, 5:00 AM)55% (Sep 14, 3:00 PM)29.85 "Hg (Sep 19, 6:00 AM)
Average60 °F83%30.04 "Hg
* Reported Sep 8 8:00 AM — Sep 23 8:00 AM, Bielefeld, Weather by CustomWeather, © 2014

Note: Actual official high and low records may vary slightly from our data, if they occured in-between our weather recording intervals... More about our weather records

Advertising

Bielefeld weather history for previous 24 hours

 ConditionsComfort  
Time TempWeatherWind HumidityBarometerVisibility
8:00 AM
Sep 23
47 °FFog.3 mph94%30.17 "Hg3 mi
7:00 AM47 °FFog.2 mph90%30.16 "Hg4 mi
6:00 AM47 °FLow clouds.1 mph90%30.15 "Hg6 mi
5:00 AM48 °FOvercast.1 mph92%30.15 "Hg6 mi
4:00 AM48 °FOvercast.1 mph90%30.14 "Hg6 mi
3:00 AM49 °FOvercast.1 mph88%30.15 "Hg7 mi
2:00 AM50 °FOvercast.1 mph86%30.15 "Hg9 mi
1:00 AM50 °FOvercast.1 mph85%30.15 "Hg9 mi
12:00 AM49 °FOvercast.1 mph88%30.14 "Hg8 mi
11:00 PM
Sep 22
49 °FOvercast.2 mph87%30.14 "Hg9 mi
10:00 PM49 °FOvercast.1 mph87%30.12 "Hg10 mi
9:00 PM51 °FOvercast.2 mph73%30.11 "Hg14 mi
8:00 PM52 °FPassing clouds.2 mph72%30.09 "Hg14 mi
7:00 PM55 °FPassing clouds.3 mph68%30.06 "Hg12 mi
6:00 PM56 °FOvercast.3 mph65%30.05 "Hg15 mi
5:00 PM56 °FPartly sunny.3 mph61%30.04 "Hg17 mi
4:00 PM56 °FOvercast.6 mph69%30.04 "Hg13 mi
3:00 PM53 °FOvercast.6 mph77%30.04 "Hg14 mi
2:00 PM52 °FScattered clouds.2 mph81%30.04 "Hg17 mi
1:00 PM48 °FPartly sunny.2 mph83%30.02 "Hg14 mi
12:00 PM52 °FRain. Overcast.7 mph81%30.00 "Hg1 mi
11:00 AM54 °FPartly sunny.8 mph78%29.99 "Hg5 mi
10:00 AM53 °FOvercast.7 mph81%30.01 "Hg4 mi
9:00 AM52 °FOvercast.6 mph88%30.01 "Hg4 mi
Weather by CustomWeather, © 2014

See weather overviewHow to use our weather pages